Simultaneous Nadir Overpasses (SNOs) Predictions

Prediction of SNOs between METOP-B and NPP Satellite Orbit:

Table of predicted SNOs for the next 14.0 days since TLE Epoch: 6/29/2020
Index Date (METOP-B) Time (METOP-B) Lat,Lon (METOP-B) SZA (METOP-B ) Date (NPP) Time (NPP) Lat,Lon (NPP) SZA (NPP ) Distance(km) Time Diff (sec)
1 07/02/2020 11:45:02 73.50, -2.79 50.60 07/02/2020 11:43:56 73.52, -5.86 50.81 97.19 66
2 07/02/2020 12:35:46 -73.41, 164.33 129.48 07/02/2020 12:34:38 -73.43, 161.67 129.30 84.52 68
3 07/02/2020 13:26:30 73.18, -28.85 50.32 07/02/2020 13:25:20 73.22, -30.57 50.48 55.50 70
4 07/02/2020 14:17:13 -73.14, 138.39 129.72 07/02/2020 14:16:02 -73.13, 136.95 129.63 46.22 71
5 07/02/2020 15:07:57 72.90, -54.78 50.08 07/02/2020 15:06:44 72.92, -55.29 50.15 16.97 73
6 07/02/2020 15:58:41 -72.81, 112.36 130.00 07/02/2020 15:57:26 -72.83, 112.22 129.95 4.94 75
7 07/02/2020 16:49:21 72.78, -80.38 49.98 07/02/2020 16:48:11 72.77, -80.35 49.99 0.93 70
8 07/02/2020 17:40:03 -72.79, 86.97 130.01 07/02/2020 17:38:55 -72.78, 86.95 130.00 1.05 68
9 07/02/2020 18:30:43 72.76,-105.76 49.97 07/02/2020 18:29:41 72.78,-105.73 50.00 2.51 62
10 07/02/2020 19:21:25 -72.77, 61.58 130.02 07/02/2020 19:20:25 -72.78, 61.56 129.99 2.18 60
11 07/02/2020 20:12:04 72.78,-131.04 50.00 07/02/2020 20:11:11 72.78,-131.11 50.01 2.34 53
12 07/02/2020 21:02:47 -72.74, 36.20 130.04 07/02/2020 21:01:54 -72.74, 36.29 130.04 3.16 53
13 07/02/2020 21:53:26 72.76,-156.43 49.99 07/02/2020 21:52:41 72.78,-156.49 50.02 3.09 45
14 07/02/2020 22:44:08 -72.77, 10.92 130.01 07/02/2020 22:43:24 -72.74, 10.91 130.03 3.55 44
15 07/02/2020 23:34:48 72.74, 178.18 49.97 07/02/2020 23:34:10 72.73, 178.23 49.97 1.68 38
16 07/03/2020 00:25:30 -72.75, -14.47 130.02 07/03/2020 00:24:54 -72.74, -14.47 130.02 0.75 36
17 07/03/2020 01:16:10 72.72, 152.80 49.96 07/03/2020 01:15:40 72.74, 152.85 49.98 2.91 30
18 07/03/2020 02:06:52 -72.73, -39.86 130.03 07/03/2020 02:06:24 -72.74, -39.85 130.01 2.06 28
19 07/03/2020 02:57:31 72.74, 127.51 49.99 07/03/2020 02:57:10 72.74, 127.47 49.99 1.57 21
20 07/03/2020 03:48:13 -72.75, -65.14 130.00 07/03/2020 03:47:54 -72.75, -65.23 130.00 3.13 19
21 07/03/2020 04:38:53 72.72, 102.13 49.97 07/03/2020 04:38:40 72.74, 102.09 50.00 2.60 13
22 07/03/2020 05:29:35 -72.73, -90.53 130.02 07/03/2020 05:29:24 -72.75, -90.61 129.99 3.47 11
23 07/03/2020 06:20:14 72.70, 76.74 49.96 07/03/2020 06:20:08 72.69, 76.81 49.95 2.46 6
24 07/03/2020 07:10:56 -72.71,-115.91 130.03 07/03/2020 07:10:52 -72.70,-115.89 130.04 1.15 4
25 07/03/2020 08:01:36 72.68, 51.36 49.95 07/03/2020 08:01:38 72.70, 51.43 49.96 3.44 2
26 07/03/2020 08:52:18 -72.69,-141.30 130.04 07/03/2020 08:52:22 -72.71,-141.27 130.03 2.23 4
27 07/03/2020 09:42:57 72.70, 26.07 49.98 07/03/2020 09:43:08 72.70, 26.05 49.97 0.88 11
28 07/03/2020 10:33:39 -72.72,-166.58 130.01 07/03/2020 10:33:52 -72.71,-166.65 130.02 2.40 13
29 07/03/2020 11:24:19 72.68, 0.69 49.96 07/03/2020 11:24:38 72.70, 0.67 49.98 2.30 19
30 07/03/2020 12:15:01 -72.69, 168.04 130.03 07/03/2020 12:15:22 -72.71, 167.97 130.01 2.84 21
31 07/03/2020 13:05:41 72.66, -24.70 49.95 07/03/2020 13:06:07 72.65, -24.60 49.93 3.23 26
32 07/03/2020 13:56:23 -72.67, 142.65 130.04 07/03/2020 13:56:51 -72.66, 142.70 130.06 1.81 28
33 07/03/2020 14:47:02 72.69, -49.98 49.98 07/03/2020 14:47:37 72.66, -49.98 49.94 3.42 35
34 07/03/2020 15:37:45 -72.65, 117.26 130.05 07/03/2020 15:38:21 -72.67, 117.32 130.05 2.63 36
35 07/03/2020 16:28:24 72.66, -75.37 49.97 07/03/2020 16:29:07 72.66, -75.36 49.95 0.60 43
36 07/03/2020 17:19:06 -72.68, 91.98 130.02 07/03/2020 17:19:51 -72.67, 91.94 130.04 1.73 45
37 07/03/2020 18:09:46 72.64,-100.75 49.96 07/03/2020 18:10:37 72.66,-100.74 49.96 2.25 51
38 07/03/2020 19:00:28 -72.65, 66.60 130.04 07/03/2020 19:01:21 -72.67, 66.56 130.03 2.30 53
39 07/03/2020 19:51:07 72.67,-126.03 49.99 07/03/2020 19:52:07 72.67,-126.12 49.97 3.03 60
40 07/03/2020 20:41:50 -72.63, 41.21 130.05 07/03/2020 20:42:50 -72.62, 41.28 130.08 2.51 60
41 07/03/2020 21:32:29 72.65,-151.42 49.97 07/03/2020 21:33:36 72.62,-151.40 49.93 3.50 67
42 07/03/2020 22:23:12 -72.61, 15.82 130.06 07/03/2020 22:24:20 -72.63, 15.90 130.07 3.15 68
43 07/03/2020 23:13:52 72.57,-176.91 49.92 07/03/2020 23:15:06 72.62,-176.78 49.93 6.65 74
44 07/04/2020 00:04:35 -72.54, -9.66 130.12 07/04/2020 00:05:49 -72.58, -9.38 130.11 10.67 74
45 07/04/2020 00:55:20 72.24, 157.10 49.64 07/04/2020 00:56:30 72.32, 158.45 49.61 46.59 70
46 07/04/2020 01:46:03 -72.21, -35.65 130.40 07/04/2020 01:47:13 -72.28, -34.15 130.44 51.57 70
47 07/04/2020 02:36:47 71.96, 131.22 49.40 07/04/2020 02:37:54 72.01, 133.67 49.28 84.22 67
48 07/04/2020 03:27:30 -71.93, -61.52 130.63 07/04/2020 03:28:37 -71.97, -58.94 130.76 89.14 67
